Temperature
8 8 8 8 7 7 6 6 5 5 5 5 5 5 5 5 4 4 4 4 4 4 3 3 3 3 3 2 2 2 2 1 1 1 1 1 1 1
7 7 7 7 6 6 6 6 5 5 4 4 4 4 4 4 4 3 3 3 3 3 2 2 2 2 2 1 1 1 1 1 0 0 -0 -0 -0 -0
6 6 6 6 5 5 5 5 5 4 4 3 3 3 3 3 3 3 2 2 2 1 1 1 1 1 1 0 0 0 -0 -0 -1 -1 -1 -1 -1 -1
5 5 5 5 4 4 4 4 4 4 3 3 3 2 2 2 2 1 1 1 1 1 1 0 0 0 -0 -0 -1 -1 -1 -1 -1 -2 -2 -2 -2 -2
4 4 4 4 3 3 3 3 3 3 2 2 2 1 1 1 1 1 0 0 0 0 -0 -0 -1 -1 -1 -1 -1 -1 -2 -2 -2 -2 -2 -3 -3 -3
3 3 3 3 2 2 2 2 2 2 1 1 1 0 -0 -0 -1 -1 -1 -1 -1 -1 -1 -1 -1 -1 -2 -2 -2 -2 -2 -2 -2 -3 -3 -3 -3 -3
2 2 2 2 1 1 1 1 1 1 0 0 -0 -1 -1 -1 -1 -2 -2 -2 -2 -2 -2 -2 -2 -2 -2 -2 -2 -2 -3 -3 -3 -3 -3 -4 -4 -4
1 1 1 1 0 0 0 -0 -0 -1 -1 -1 -1 -2 -2 -3 -3 -3 -3 -3 -3 -3 -3 -3 -3 -3 -3 -3 -3 -3 -3 -3 -3 -3 -4 -4 -4 -4
1 0 0 -0 -0 -1 -1 -1 -1 -1 -2 -2 -2 -3 -3 -4 -4 -4 -4 -4 -4 -4 -4 -3 -3 -4 -4 -3 -3 -3 -3 -4 -4 -4 -4 -4 -4 -4
-0 -0 -1 -1 -1 -1 -2 -2 -2 -2 -3 -3 -3 -4 -4 -4 -4 -5 -5 -5 -5 -5 -5 -4 -4 -4 -4 -4 -4 -4 -4 -4 -4 -4 -4 -4 -4 -4
-1 -1 -1 -2 -2 -2 -2 -2 -3 -3 -3 -4 -4 -4 -4 -5 -5 -5 -5 -5 -5 -5 -5 -5 -5 -4 -4 -4 -4 -4 -5 -5 -5 -5 -5 -5 -4 -4
-1 -2 -2 -2 -3 -3 -3 -3 -3 -4 -4 -4 -4 -5 -5 -5 -5 -5 -6 -6 -6 -6 -6 -6 -6 -6 -5 -4 -5 -5 -5 -5 -5 -5 -5 -5 -5 -4
-2 -2 -2 -3 -3 -3 -4 -4 -4 -4 -4 -5 -5 -5 -5 -5 -5 -6 -6 -6 -6 -6 -7 -7 -6 -6 -7 -6 -4 -4 -5 -5 -5 -5 -5 -5 -5 -5
-2 -2 -3 -3 -3 -4 -4 -4 -4 -5 -5 -5 -5 -5 -5 -6 -6 -6 -6 -6 -6 -6 -7 -7 -7 -7 -7 -7 -5 -4 -5 -5 -5 -5 -5 -5 -6 -6
-2 -3 -3 -3 -3 -4 -4 -4 -5 -5 -5 -5 -5 -6 -6 -6 -6 -6 -6 -6 -6 -7 -7 -7 -7 -8 -8 -8 -7 -6 -5 -5 -5 -6 -6 -6 -6 -6
-3 -3 -3 -4 -4 -4 -4 -5 -5 -5 -5 -5 -6 -6 -6 -6 -6 -6 -6 -6 -6 -6 -7 -8 -8 -8 -8 -8 -7 -6 -6 -6 -6 -6 -7 -6 -6 -6
-3 -3 -3 -4 -4 -4 -5 -5 -5 -5 -6 -6 -6 -6 -6 -6 -6 -7 -7 -7 -7 -7 -7 -8 -8 -8 -8 -8 -7 -6 -7 -7 -7 -7 -7 -7 -6 -6
-3 -3 -3 -4 -4 -4 -5 -5 -5 -6 -6 -6 -6 -7 -7 -7 -7 -7 -7 -8 -8 -7 -8 -8 -8 -8 -8 -7 -7 -7 -7 -7 -7 -8 -8 -8 -6 -6
-3 -3 -4 -4 -4 -5 -5 -5 -5 -6 -6 -6 -7 -7 -7 -7 -7 -7 -8 -8 -8 -8 -8 -8 -9 -9 -9 -9 -8 -7 -8 -8 -8 -8 -8 -8 -7 -6
-3 -4 -4 -4 -5 -5 -5 -5 -6 -6 -6 -7 -7 -7 -8 -8 -8 -8 -8 -8 -8 -8 -8 -8 -9 -9 -10 -10 -9 -7 -8 -8 -8 -8 -8 -8 -7 -7
-3 -4 -4 -4 -5 -5 -5 -6 -6 -6 -7 -7 -7 -8 -8 -8 -8 -8 -8 -9 -9 -9 -9 -8 -9 -9 -10 -10 -9 -8 -7 -8 -8 -9 -8 -8 -8 -7
-3 -4 -4 -4 -5 -5 -5 -6 -6 -6 -7 -7 -7 -8 -8 -8 -9 -9 -9 -9 -9 -9 -9 -9 -9 -9 -9 -10 -9 -9 -8 -7 -8 -8 -8 -8 -9 -9
-4 -4 -4 -4 -5 -5 -5 -6 -6 -6 -7 -7 -8 -8 -8 -9 -9 -9 -9 -9 -9 -9 -9 -9 -9 -9 -9 -9 -9 -9 -8 -8 -8 -7 -7 -7 -8 -8
Wind_Speed
4 4 3 3 3 3 2 1 2 3 2 2 3 4 6 6 6 5 4 5 4 3 3 3 3 2 1 1 1 2 4 5 6 8 10 11 12 12
5 6 5 4 4 4 3 3 1 1 1 2 3 3 5 5 7 7 7 7 7 6 6 5 4 3 2 1 2 3 4 6 8 10 11 12 13 13
7 7 7 6 5 5 5 4 4 2 0 1 2 3 4 4 6 7 8 8 8 8 7 6 5 3 2 3 4 5 7 8 10 11 12 13 13 13
8 8 7 6 7 6 5 5 4 4 2 1 2 3 4 4 4 5 6 7 8 8 7 6 5 4 4 5 5 7 8 10 11 12 13 13 13 14
8 7 6 6 7 5 6 5 4 5 4 3 2 3 3 3 3 4 5 5 7 7 7 6 6 6 6 7 7 8 9 11 11 12 13 13 14 14
8 7 6 6 5 5 5 5 5 5 5 4 3 3 3 3 3 3 3 3 3 5 7 7 8 8 8 8 9 10 10 11 12 13 14 14 14 15
8 7 7 8 8 6 5 4 5 4 4 4 3 3 3 3 3 3 2 3 3 2 3 4 6 7 8 8 9 10 11 11 12 13 14 14 14 14
6 6 6 7 9 10 10 9 7 4 3 3 2 2 2 2 2 2 2 3 3 3 3 4 3 4 6 8 9 10 10 11 11 12 13 13 14 14
5 5 4 5 7 5 7 10 9 9 6 3 2 0 1 1 1 2 1 1 3 3 3 4 3 3 6 9 11 10 8 8 9 10 11 12 13 14
4 3 3 3 2 3 4 5 5 5 5 3 1 1 2 3 2 2 2 2 3 3 1 3 3 3 5 10 9 5 5 6 7 8 10 11 12 13
3 2 2 3 4 5 4 3 4 4 5 6 4 4 5 4 2 1 1 2 3 2 1 1 3 4 4 3 6 6 7 9 10 10 11 12 13 14
2 3 4 3 4 4 3 1 2 2 2 3 5 5 6 6 6 3 1 1 1 3 2 1 2 3 4 3 3 7 9 10 10 12 14 14 14 12
0 1 3 5 4 4 2 1 2 1 1 1 2 2 3 3 3 3 1 2 2 4 2 1 2 2 3 4 4 4 6 7 9 12 15 15 13 11
1 2 3 5 4 4 3 3 3 3 1 1 1 2 2 2 3 4 5 5 6 8 8 5 3 3 3 4 5 4 4 8 10 9 11 12 11 13
2 3 4 4 3 3 3 3 3 2 1 1 2 2 2 3 3 4 5 6 8 11 12 11 7 5 5 6 6 6 5 5 6 5 5 6 7 8
1 2 3 3 2 2 2 2 1 1 1 1 2 3 2 2 3 3 3 3 4 4 6 9 10 7 6 8 9 10 7 6 5 5 6 8 10 12
2 1 0 1 1 2 1 2 1 1 1 2 2 3 3 4 4 3 3 3 3 4 5 4 8 11 10 9 9 11 10 9 9 8 7 9 9 9
3 2 2 3 3 3 3 3 2 2 2 3 3 3 4 4 5 4 3 4 5 6 6 5 4 4 4 6 12 11 9 8 7 7 7 9 12 9
3 3 4 4 4 4 4 4 3 3 3 3 4 4 5 5 5 5 5 5 6 7 6 5 4 4 6 7 6 10 7 7 7 8 8 9 11 11
4 4 5 5 5 5 5 4 4 4 4 4 5 5 5 5 6 6 5 6 7 7 7 6 5 5 6 7 6 6 12 11 9 10 10 9 10 15
5 6 6 5 5 5 5 5 5 5 5 5 5 6 5 5 6 6 6 10 10 8 9 8 7 10 7 6 8 9 7 13 14 11 10 11 12 11
6 7 6 6 6 6 5 5 5 5 6 6 6 6 6 6 7 8 8 8 8 8 10 9 8 6 5 8 11 13 13 11 14 21 22 20 11 7
7 7 7 6 6 6 6 6 7 6 6 6 6 6 6 6 7 8 8 9 9 9 10 10 8 6 8 9 11 13 15 14 12 11 11 17 23 27
Wind_Direction
48 51 51 33 27 15 3 305 258 269 280 20 16 9 3 7 3 4 355 339 327 320 326 3 49 56 58 31 291 276 275 278 282 281 279 278 277 277
54 60 55 40 39 33 29 27 21 243 254 42 27 3 1 16 26 34 32 30 30 28 35 42 40 46 31 329 283 281 283 282 280 279 279 280 280 279
56 62 58 51 51 41 39 40 35 34 110 60 42 17 19 19 22 33 38 36 28 28 27 25 21 7 343 312 297 288 284 281 279 280 280 281 281 281
60 61 56 57 54 44 44 43 36 28 60 68 34 22 26 18 20 29 32 33 25 16 10 8 3 355 337 316 300 292 287 282 280 280 280 280 279 279
64 65 60 63 60 51 50 46 36 36 43 77 51 28 26 23 28 29 29 19 17 13 10 7 358 343 326 311 302 296 290 285 281 278 278 278 277 277
60 58 56 62 69 62 55 47 47 49 50 62 56 34 28 15 32 22 11 3 358 3 5 360 352 340 327 315 305 297 289 283 279 276 275 275 274 273
56 48 49 60 68 69 66 55 56 57 55 55 46 31 20 16 12 355 358 339 340 356 341 333 327 320 316 313 304 292 284 278 275 274 274 274 273 273
62 47 47 48 55 57 59 57 59 65 64 62 47 41 4 348 342 353 356 4 337 341 344 311 315 302 304 306 301 293 284 278 275 275 275 276 276 275
63 51 45 42 48 45 51 49 44 50 61 104 96 52 296 291 318 332 330 299 277 297 336 302 323 301 301 309 311 298 287 285 285 284 282 280 279 278
62 57 44 14 35 80 68 47 33 27 38 64 137 230 247 248 224 226 251 284 281 282 252 288 317 298 304 313 320 318 313 312 308 302 295 291 289 285
40 35 27 349 15 66 81 53 26 4 21 30 28 16 3 354 2 72 352 348 322 309 350 295 309 308 302 302 319 331 333 327 315 306 300 296 292 287
29 9 7 359 6 35 103 76 359 330 356 8 15 18 22 22 28 50 142 174 282 296 309 320 310 336 321 297 290 299 306 308 309 308 306 300 292 287
56 344 328 346 355 359 23 174 296 19 68 17 358 357 3 9 13 10 348 192 222 256 284 343 288 282 270 296 297 271 275 284 292 295 299 297 289 281
226 268 293 327 345 352 355 329 356 50 63 16 352 339 336 333 327 322 309 278 251 253 265 255 251 237 266 283 284 289 279 274 276 282 285 292 291 289
235 275 305 329 359 359 343 357 34 52 22 334 316 302 290 285 292 302 301 295 284 275 269 256 242 252 253 265 276 285 301 288 271 267 275 277 277 279
271 294 320 334 356 334 347 8 14 284 265 269 285 287 291 288 292 298 298 307 304 295 280 266 252 240 256 259 268 277 273 274 286 273 277 280 276 268
227 196 253 299 303 298 287 279 279 301 304 280 279 289 295 296 294 290 279 281 276 284 293 285 270 256 245 255 267 267 269 269 268 276 281 284 278 267
228 204 236 245 252 258 266 272 265 262 261 264 271 276 284 287 289 285 272 269 276 278 279 282 294 304 291 264 240 255 262 265 269 267 262 279 285 274
229 227 237 242 245 247 247 245 249 254 253 257 263 266 270 274 278 280 279 278 278 278 275 270 264 266 289 294 274 235 242 267 277 278 270 268 277 282
216 228 237 240 240 241 242 243 248 252 250 254 259 262 263 267 273 273 272 273 280 282 283 270 249 240 252 273 279 271 258 261 271 276 280 278 275 279
230 233 235 236 237 237 238 238 239 244 245 246 253 255 255 258 265 265 268 278 282 280 281 280 264 273 269 265 273 274 264 259 260 265 273 281 285 284
232 235 235 233 233 234 234 235 238 242 244 244 248 250 251 253 260 264 267 271 273 272 275 279 276 273 256 262 272 282 288 285 276 274 268 263 266 271
231 233 234 232 231 229 228 230 235 242 240 241 245 247 247 254 257 260 264 267 270 273 278 283 282 268 264 264 272 279 284 289 293 288 277 268 265 264
Height
1504 1504 1503 1503 1503 1502 1502 1501 1502 1499 1499 1498 1497 1496 1496 1495 1494 1493 1493 1493 1493 1494 1495 1496 1497 1498 1499 1500 1502 1503 1504 1506 1507 1508 1509 1510 1510 1511
1500 1499 1499 1499 1498 1498 1498 1497 1497 1496 1495 1494 1493 1493 1492 1491 1490 1490 1489 1489 1489 1490 1491 1492 1493 1494 1495 1496 1497 1498 1499 1500 1501 1502 1503 1504 1505 1505
1496 1496 1496 1495 1495 1495 1494 1494 1493 1493 1492 1491 1490 1489 1489 1488 1487 1487 1486 1486 1486 1487 1488 1488 1489 1490 1490 1491 1492 1493 1493 1494 1495 1496 1497 1497 1498 1499
1494 1493 1493 1493 1492 1492 1491 1491 1490 1490 1490 1489 1488 1487 1486 1485 1485 1484 1484 1484 1484 1484 1485 1485 1485 1485 1486 1486 1487 1487 1488 1488 1489 1490 1490 1491 1492 1493
1492 1492 1491 1491 1491 1490 1489 1489 1488 1488 1487 1486 1485 1485 1484 1483 1482 1482 1481 1481 1481 1481 1481 1481 1481 1481 1481 1481 1481 1482 1482 1483 1483 1483 1484 1484 1485 1486
1490 1490 1490 1489 1489 1488 1488 1487 1486 1486 1485 1484 1483 1483 1482 1481 1480 1480 1479 1478 1478 1478 1477 1477 1477 1476 1476 1476 1476 1476 1477 1477 1477 1478 1478 1479 1479 1480
1489 1489 1489 1488 1487 1487 1486 1485 1485 1484 1483 1482 1481 1481 1480 1479 1479 1477 1477 1476 1475 1475 1474 1474 1473 1472 1472 1472 1471 1471 1472 1472 1472 1472 1473 1473 1474 1474
1488 1488 1488 1487 1486 1486 1485 1484 1483 1483 1481 1481 1480 1479 1478 1478 1477 1476 1475 1474 1473 1473 1472 1471 1470 1469 1468 1468 1467 1467 1467 1467 1467 1467 1467 1468 1468 1469
1487 1487 1486 1486 1485 1485 1484 1483 1482 1481 1480 1480 1478 1478 1477 1476 1475 1474 1473 1472 1471 1470 1469 1468 1467 1466 1465 1464 1463 1463 1462 1462 1462 1462 1462 1462 1462 1463
1486 1486 1485 1485 1484 1483 1482 1482 1481 1480 1479 1478 1477 1476 1476 1475 1474 1473 1472 1471 1470 1469 1467 1465 1464 1463 1462 1460 1459 1459 1458 1458 1457 1457 1457 1457 1456 1456
1486 1485 1484 1484 1483 1482 1482 1481 1480 1479 1478 1477 1476 1475 1474 1473 1472 1471 1470 1469 1467 1466 1465 1463 1461 1460 1458 1457 1456 1455 1455 1454 1453 1453 1452 1451 1450 1450
1484 1484 1483 1483 1482 1481 1480 1479 1478 1478 1477 1476 1475 1474 1473 1472 1470 1469 1468 1467 1465 1464 1462 1461 1459 1457 1455 1454 1453 1453 1452 1450 1449 1448 1446 1445 1444 1443
1483 1483 1482 1481 1481 1480 1479 1478 1477 1476 1475 1474 1473 1472 1471 1470 1468 1467 1466 1465 1463 1462 1461 1458 1456 1454 1453 1450 1449 1449 1447 1445 1444 1442 1441 1439 1438 1437
1481 1481 1480 1479 1479 1478 1477 1476 1475 1474 1473 1472 1471 1470 1468 1467 1466 1464 1463 1462 1460 1459 1457 1455 1453 1451 1449 1445 1443 1442 1442 1440 1438 1436 1435 1434 1433 1432
1479 1479 1478 1477 1476 1476 1475 1474 1473 1472 1470 1469 1468 1467 1465 1464 1462 1461 1459 1458 1456 1455 1453 1451 1449 1447 1445 1442 1438 1436 1435 1434 1433 1431 1430 1428 1427 1426
1477 1476 1475 1475 1474 1473 1472 1471 1470 1469 1467 1466 1465 1464 1462 1461 1459 1457 1455 1454 1452 1451 1450 1447 1445 1443 1440 1438 1435 1431 1431 1429 1427 1426 1423 1421 1421 1419
1474 1473 1473 1472 1471 1470 1469 1468 1467 1466 1464 1463 1461 1460 1458 1457 1455 1453 1451 1449 1448 1446 1445 1443 1441 1438 1435 1433 1429 1427 1425 1423 1422 1420 1417 1414 1413 1413
1471 1470 1469 1468 1467 1467 1466 1465 1463 1462 1461 1459 1458 1456 1454 1453 1451 1449 1447 1445 1443 1441 1439 1438 1435 1432 1430 1427 1426 1422 1420 1418 1416 1414 1411 1407 1404 1405
1467 1466 1466 1465 1464 1463 1462 1460 1459 1458 1456 1455 1453 1452 1450 1448 1446 1444 1443 1441 1438 1436 1435 1433 1431 1427 1424 1420 1418 1418 1415 1412 1409 1407 1405 1402 1398 1396
1463 1463 1462 1461 1460 1458 1457 1456 1455 1453 1452 1450 1449 1447 1445 1443 1441 1439 1438 1435 1433 1431 1429 1428 1426 1423 1420 1416 1411 1409 1410 1406 1403 1400 1397 1395 1391 1389
1459 1458 1457 1456 1455 1454 1453 1451 1450 1448 1447 1445 1443 1442 1440 1438 1436 1434 1432 1430 1428 1426 1423 1422 1421 1419 1415 1411 1406 1402 1402 1401 1398 1394 1390 1387 1383 1380
1454 1453 1452 1451 1450 1449 1447 1446 1444 1443 1442 1440 1438 1437 1435 1433 1431 1429 1427 1425 1422 1420 1417 1415 1414 1412 1409 1405 1400 1396 1393 1392 1391 1388 1385 1382 1379 1373
1448 1448 1447 1446 1445 1443 1442 1440 1439 1437 1436 1434 1433 1431 1429 1427 1425 1423 1421 1419 1417 1414 1412 1409 1407 1405 1402 1399 1395 1390 1386 1383 1381 1378 1376 1375 1373 1369